Time,TemperatureF,DewpointF,PressureIn,WindDirection,WindDirectionDegrees,WindSpeedMPH,WindSpeedGustMPH,Humidity,HourlyPrecipIn,Conditions,Clouds,dailyrainin,SoftwareType,DateUTC
2013-05-25 00:02:00,43.0,32.8,30.21,North,349,8.0,9.0,67,0.00,,,0.00,Wunderground v.1.15,2013-05-25 04:02:00,
2013-05-25 00:04:00,42.9,32.7,30.22,West,277,7.0,9.0,67,0.00,,,0.00,Wunderground v.1.15,2013-05-25 04:04:00,
2013-05-25 00:06:00,43.0,32.8,30.21,WNW,294,8.0,9.0,67,0.00,,,0.00,Wunderground v.1.15,2013-05-25 04:06:00,
2013-05-25 00:12:00,42.9,32.7,30.21,NNW,341,6.0,6.0,67,0.00,,,0.00,Wunderground v.1.15,2013-05-25 04:12:00,
2013-05-25 00:18:00,42.8,33.0,30.21,WNW,294,4.0,9.0,68,0.00,,,0.00,Wunderground v.1.15,2013-05-25 04:18:00,
2013-05-25 00:22:00,42.8,33.0,30.21,West,281,5.0,6.0,68,0.00,,,0.00,Wunderground v.1.15,2013-05-25 04:22:00,
2013-05-25 00:28:00,42.7,33.2,30.21,WNW,300,8.0,13.0,69,0.00,,,0.00,Wunderground v.1.15,2013-05-25 04:28:00,
2013-05-25 00:34:00,42.7,33.2,30.21,West,271,7.0,16.0,69,0.00,,,0.00,Wunderground v.1.15,2013-05-25 04:34:00,
2013-05-25 00:40:00,42.7,33.2,30.21,West,275,6.0,7.0,69,0.00,,,0.00,Wunderground v.1.15,2013-05-25 04:40:00,
2013-05-25 00:46:00,42.6,33.5,30.21,NW,319,5.0,11.0,70,0.00,,,0.00,Wunderground v.1.15,2013-05-25 04:46:00,
2013-05-25 00:52:00,42.7,33.6,30.21,WNW,288,7.0,8.0,70,0.00,,,0.00,Wunderground v.1.15,2013-05-25 04:52:00,
2013-05-25 00:58:00,42.7,33.6,30.21,West,274,7.0,10.0,70,0.00,,,0.00,Wunderground v.1.15,2013-05-25 04:58:00,
2013-05-25 01:04:00,42.8,33.7,30.21,WNW,288,6.0,11.0,70,0.00,,,0.00,Wunderground v.1.15,2013-05-25 05:04:00,
2013-05-25 01:10:00,42.7,33.6,30.21,West,262,6.0,6.0,70,0.00,,,0.00,Wunderground v.1.15,2013-05-25 05:10:00,
2013-05-25 01:16:00,42.6,33.9,30.21,West,260,4.0,7.0,71,0.00,,,0.00,Wunderground v.1.15,2013-05-25 05:16:00,
2013-05-25 01:22:00,42.5,33.8,30.21,WNW,294,5.0,5.0,71,0.00,,,0.00,Wunderground v.1.15,2013-05-25 05:22:00,
2013-05-25 01:28:00,42.5,33.8,30.21,West,281,6.0,9.0,71,0.00,,,0.00,Wunderground v.1.15,2013-05-25 05:28:00,
2013-05-25 01:34:00,42.4,33.7,30.21,WSW,244,7.0,8.0,71,0.00,,,0.00,Wunderground v.1.15,2013-05-25 05:34:00,
2013-05-25 01:40:00,42.2,34.2,30.21,WNW,284,3.0,3.0,73,0.00,,,0.00,Wunderground v.1.15,2013-05-25 05:40:00,
2013-05-25 01:46:00,42.0,34.3,30.21,WNW,294,3.0,5.0,74,0.00,,,0.00,Wunderground v.1.15,2013-05-25 05:46:00,
2013-05-25 01:52:00,41.9,33.9,30.21,WNW,292,7.0,7.0,73,0.00,,,0.00,Wunderground v.1.15,2013-05-25 05:52:00,
2013-05-25 01:58:00,41.6,33.9,30.21,NW,317,6.0,10.0,74,0.00,,,0.00,Wunderground v.1.15,2013-05-25 05:58:00,
2013-05-25 02:04:00,41.3,34.0,30.21,WNW,297,6.0,6.0,75,0.00,,,0.00,Wunderground v.1.15,2013-05-25 06:04:00,
2013-05-25 02:10:00,41.1,34.1,30.21,WNW,288,5.0,8.0,76,0.00,,,0.00,Wunderground v.1.15,2013-05-25 06:10:00,
2013-05-25 02:16:00,41.0,34.0,30.21,NW,311,6.0,8.0,76,0.00,,,0.00,Wunderground v.1.15,2013-05-25 06:16:00,
2013-05-25 02:22:00,41.0,34.3,30.21,West,276,6.0,8.0,77,0.00,,,0.00,Wunderground v.1.15,2013-05-25 06:22:00,
2013-05-25 02:28:00,41.0,34.0,30.21,West,272,7.0,9.0,76,0.00,,,0.00,Wunderground v.1.15,2013-05-25 06:28:00,
2013-05-25 02:34:00,41.2,34.2,30.21,WNW,302,9.0,13.0,76,0.00,,,0.00,Wunderground v.1.15,2013-05-25 06:34:00,
2013-05-25 02:40:00,41.1,34.4,30.21,WNW,300,10.0,10.0,77,0.00,,,0.00,Wunderground v.1.15,2013-05-25 06:40:00,
2013-05-25 02:46:00,41.2,34.5,30.21,WNW,301,9.0,14.0,77,0.00,,,0.00,Wunderground v.1.15,2013-05-25 06:46:00,
2013-05-25 02:52:00,41.0,34.3,30.21,NW,309,9.0,12.0,77,0.00,,,0.00,Wunderground v.1.15,2013-05-25 06:52:00,
2013-05-25 02:58:00,41.1,34.4,30.21,West,281,9.0,12.0,77,0.00,,,0.00,Wunderground v.1.15,2013-05-25 06:58:00,
2013-05-25 03:04:00,41.1,34.4,30.21,WNW,299,9.0,10.0,77,0.00,,,0.00,Wunderground v.1.15,2013-05-25 07:04:00,
2013-05-25 03:10:00,41.1,34.4,30.20,West,267,9.0,9.0,77,0.00,,,0.00,Wunderground v.1.15,2013-05-25 07:10:00,
2013-05-25 03:16:00,41.0,34.3,30.20,West,270,9.0,11.0,77,0.00,,,0.00,Wunderground v.1.15,2013-05-25 07:16:00,
2013-05-25 03:22:00,40.7,34.4,30.21,WNW,296,8.0,8.0,78,0.00,,,0.00,Wunderground v.1.15,2013-05-25 07:22:00,
2013-05-25 03:28:00,40.6,34.0,30.21,WNW,303,8.0,8.0,77,0.00,,,0.00,Wunderground v.1.15,2013-05-25 07:28:00,
2013-05-25 03:34:00,40.7,34.4,30.22,WNW,300,10.0,13.0,78,0.00,,,0.00,Wunderground v.1.15,2013-05-25 07:34:00,
2013-05-25 03:40:00,40.8,34.5,30.22,WNW,289,9.0,9.0,78,0.00,,,0.00,Wunderground v.1.15,2013-05-25 07:40:00,
2013-05-25 03:46:00,40.7,34.4,30.22,WNW,294,9.0,14.0,78,0.00,,,0.00,Wunderground v.1.15,2013-05-25 07:46:00,
2013-05-25 03:52:00,40.9,34.2,30.22,North,355,9.0,9.0,77,0.00,,,0.00,Wunderground v.1.15,2013-05-25 07:52:00,
2013-05-25 03:58:00,40.6,34.3,30.22,West,275,6.0,9.0,78,0.00,,,0.00,Wunderground v.1.15,2013-05-25 07:58:00,
2013-05-25 04:04:00,40.4,34.4,30.22,West,260,6.0,8.0,79,0.00,,,0.00,Wunderground v.1.15,2013-05-25 08:04:00,
2013-05-25 04:10:00,40.4,34.1,30.22,SW,221,8.0,11.0,78,0.00,,,0.00,Wunderground v.1.15,2013-05-25 08:10:00,
2013-05-25 04:16:00,40.5,34.5,30.23,WNW,300,7.0,11.0,79,0.00,,,0.00,Wunderground v.1.15,2013-05-25 08:16:00,
2013-05-25 04:22:00,40.4,34.4,30.23,WNW,302,6.0,7.0,79,0.00,,,0.00,Wunderground v.1.15,2013-05-25 08:22:00,
2013-05-25 04:28:00,40.2,34.2,30.22,WSW,254,5.0,7.0,79,0.00,,,0.00,Wunderground v.1.15,2013-05-25 08:28:00,
2013-05-25 04:34:00,40.1,34.4,30.22,NW,306,5.0,7.0,80,0.00,,,0.00,Wunderground v.1.15,2013-05-25 08:34:00,
2013-05-25 04:40:00,40.0,34.0,30.22,WSW,241,6.0,6.0,79,0.00,,,0.00,Wunderground v.1.15,2013-05-25 08:40:00,
2013-05-25 04:46:00,40.0,34.0,30.22,WNW,287,6.0,6.0,79,0.00,,,0.00,Wunderground v.1.15,2013-05-25 08:46:00,
2013-05-25 04:52:00,39.8,34.1,30.22,West,276,6.0,9.0,80,0.00,,,0.00,Wunderground v.1.15,2013-05-25 08:52:00,
2013-05-25 04:58:00,39.8,34.1,30.22,West,271,8.0,9.0,80,0.00,,,0.00,Wunderground v.1.15,2013-05-25 08:58:00,
2013-05-25 05:04:00,39.7,34.0,30.22,WSW,252,6.0,8.0,80,0.00,,,0.00,Wunderground v.1.15,2013-05-25 09:04:00,
2013-05-25 05:10:00,39.7,34.0,30.22,WNW,286,5.0,5.0,80,0.00,,,0.00,Wunderground v.1.15,2013-05-25 09:10:00,
2013-05-25 05:16:00,39.7,34.0,30.22,SW,230,5.0,6.0,80,0.00,,,0.00,Wunderground v.1.15,2013-05-25 09:16:00,
2013-05-25 05:22:00,39.6,33.9,30.22,WSW,245,6.0,6.0,80,0.00,,,0.00,Wunderground v.1.15,2013-05-25 09:22:00,
2013-05-25 05:28:00,39.3,34.0,30.22,West,268,5.0,7.0,81,0.00,,,0.00,Wunderground v.1.15,2013-05-25 09:28:00,
2013-05-25 05:34:00,39.3,34.0,30.22,WNW,301,5.0,7.0,81,0.00,,,0.00,Wunderground v.1.15,2013-05-25 09:34:00,
2013-05-25 05:40:00,39.3,34.0,30.22,WNW,297,5.0,8.0,81,0.00,,,0.00,Wunderground v.1.15,2013-05-25 09:40:00,
2013-05-25 05:46:00,39.4,33.7,30.22,WSW,257,6.0,8.0,80,0.00,,,0.00,Wunderground v.1.15,2013-05-25 09:46:00,
2013-05-25 05:52:00,39.5,33.8,30.22,NW,319,5.0,7.0,80,0.00,,,0.00,Wunderground v.1.15,2013-05-25 09:52:00,
2013-05-25 05:58:00,39.6,33.9,30.23,WSW,244,5.0,7.0,80,0.00,,,0.00,Wunderground v.1.15,2013-05-25 09:58:00,
2013-05-25 06:04:00,39.7,34.0,30.22,WSW,244,6.0,7.0,80,0.00,,,0.00,Wunderground v.1.15,2013-05-25 10:04:00,
2013-05-25 06:10:00,39.8,34.1,30.23,SW,230,7.0,7.0,80,0.00,,,0.00,Wunderground v.1.15,2013-05-25 10:10:00,
2013-05-25 06:16:00,40.0,34.0,30.23,WSW,244,8.0,12.0,79,0.00,,,0.00,Wunderground v.1.15,2013-05-25 10:16:00,
2013-05-25 06:22:00,39.9,34.2,30.23,West,275,6.0,10.0,80,0.00,,,0.00,Wunderground v.1.15,2013-05-25 10:22:00,
2013-05-25 06:28:00,40.2,34.5,30.23,West,281,4.0,10.0,80,0.00,,,0.00,Wunderground v.1.15,2013-05-25 10:28:00,
2013-05-25 06:34:00,40.6,34.9,30.24,West,266,3.0,4.0,80,0.00,,,0.00,Wunderground v.1.15,2013-05-25 10:34:00,
2013-05-25 06:40:00,41.0,35.0,30.24,West,280,3.0,3.0,79,0.00,,,0.00,Wunderground v.1.15,2013-05-25 10:40:00,
2013-05-25 06:46:00,41.5,35.5,30.24,NW,309,4.0,8.0,79,0.00,,,0.00,Wunderground v.1.15,2013-05-25 10:46:00,
2013-05-25 06:52:00,41.8,35.8,30.24,WSW,248,4.0,4.0,79,0.00,,,0.00,Wunderground v.1.15,2013-05-25 10:52:00,
2013-05-25 06:58:00,42.2,35.5,30.25,West,265,5.0,9.0,77,0.00,,,0.00,Wunderground v.1.15,2013-05-25 10:58:00,
2013-05-25 07:04:00,42.3,35.6,30.24,West,265,6.0,8.0,77,0.00,,,0.00,Wunderground v.1.15,2013-05-25 11:04:00,
2013-05-25 07:10:00,42.3,35.3,30.24,West,269,6.0,7.0,76,0.00,,,0.00,Wunderground v.1.15,2013-05-25 11:10:00,
2013-05-25 07:16:00,42.4,35.0,30.24,West,273,7.0,8.0,75,0.00,,,0.00,Wunderground v.1.15,2013-05-25 11:16:00,
2013-05-25 07:22:00,42.4,35.4,30.25,WNW,294,7.0,11.0,76,0.00,,,0.00,Wunderground v.1.15,2013-05-25 11:22:00,
2013-05-25 07:28:00,42.5,35.1,30.25,WSW,249,8.0,11.0,75,0.00,,,0.00,Wunderground v.1.15,2013-05-25 11:28:00,
2013-05-25 07:34:00,42.8,35.8,30.25,West,277,9.0,11.0,76,0.00,,,0.00,Wunderground v.1.15,2013-05-25 11:34:00,
2013-05-25 07:40:00,42.8,35.1,30.25,West,261,6.0,6.0,74,0.00,,,0.00,Wunderground v.1.15,2013-05-25 11:40:00,
2013-05-25 07:46:00,43.8,36.7,30.25,WNW,301,2.0,6.0,76,0.00,,,0.00,Wunderground v.1.15,2013-05-25 11:46:00,
2013-05-25 07:52:00,43.4,35.3,30.25,WNW,292,5.0,9.0,73,0.00,,,0.00,Wunderground v.1.15,2013-05-25 11:52:00,
2013-05-25 07:58:00,42.9,35.2,30.25,WNW,301,8.0,9.0,74,0.00,,,0.00,Wunderground v.1.15,2013-05-25 11:58:00,
2013-05-25 08:04:00,44.2,36.4,30.25,West,273,5.0,11.0,74,0.00,,,0.00,Wunderground v.1.15,2013-05-25 12:04:00,
2013-05-25 08:10:00,44.1,36.0,30.25,WSW,254,6.0,12.0,73,0.00,,,0.00,Wunderground v.1.15,2013-05-25 12:10:00,
2013-05-25 08:16:00,44.0,35.6,30.25,West,276,8.0,12.0,72,0.00,,,0.00,Wunderground v.1.15,2013-05-25 12:16:00,
2013-05-25 08:22:00,44.1,36.0,30.25,WSW,250,8.0,12.0,73,0.00,,,0.00,Wunderground v.1.15,2013-05-25 12:22:00,
2013-05-25 08:28:00,43.8,35.4,30.25,NW,304,8.0,12.0,72,0.00,,,0.00,Wunderground v.1.15,2013-05-25 12:28:00,
2013-05-25 08:34:00,44.0,35.6,30.25,NW,315,6.0,8.0,72,0.00,,,0.00,Wunderground v.1.15,2013-05-25 12:34:00,
2013-05-25 08:40:00,44.2,35.7,30.25,West,265,5.0,9.0,72,0.00,,,0.00,Wunderground v.1.15,2013-05-25 12:40:00,
2013-05-25 08:46:00,44.2,35.4,30.25,NW,316,7.0,10.0,71,0.00,,,0.00,Wunderground v.1.15,2013-05-25 12:46:00,
2013-05-25 08:52:00,44.4,35.9,30.24,NW,307,8.0,9.0,72,0.00,,,0.00,Wunderground v.1.15,2013-05-25 12:52:00,
2013-05-25 08:58:00,45.2,36.0,30.24,NW,325,8.0,12.0,70,0.00,,,0.00,Wunderground v.1.15,2013-05-25 12:58:00,
2013-05-25 09:04:00,45.8,35.8,30.24,WNW,291,7.0,8.0,68,0.00,,,0.00,Wunderground v.1.15,2013-05-25 13:04:00,
2013-05-25 09:10:00,48.1,38.4,30.24,NW,323,3.0,4.0,69,0.00,,,0.00,Wunderground v.1.15,2013-05-25 13:10:00,
2013-05-25 09:16:00,47.6,36.4,30.24,WNW,288,3.0,9.0,65,0.00,,,0.00,Wunderground v.1.15,2013-05-25 13:16:00,
2013-05-25 09:22:00,46.8,36.0,30.23,West,276,6.0,8.0,66,0.00,,,0.00,Wunderground v.1.15,2013-05-25 13:22:00,
2013-05-25 09:28:00,46.6,36.6,30.23,NW,315,8.0,8.0,68,0.00,,,0.00,Wunderground v.1.15,2013-05-25 13:28:00,
2013-05-25 09:34:00,47.3,36.1,30.23,North,5,6.0,8.0,65,0.00,,,0.00,Wunderground v.1.15,2013-05-25 13:34:00,
2013-05-25 09:40:00,46.8,35.6,30.23,WNW,286,7.0,7.0,65,0.00,,,0.00,Wunderground v.1.15,2013-05-25 13:40:00,
2013-05-25 09:46:00,47.0,37.0,30.23,North,360,8.0,14.0,68,0.00,,,0.00,Wunderground v.1.15,2013-05-25 13:46:00,
2013-05-25 09:52:00,48.0,37.2,30.23,NNW,327,8.0,10.0,66,0.00,,,0.00,Wunderground v.1.15,2013-05-25 13:52:00,
2013-05-25 09:58:00,48.1,36.5,30.23,WNW,287,9.0,11.0,64,0.00,,,0.00,Wunderground v.1.15,2013-05-25 13:58:00,
2013-05-25 10:04:00,47.1,35.1,30.23,North,9,11.0,13.0,63,0.00,,,0.00,Wunderground v.1.15,2013-05-25 14:04:00,
2013-05-25 10:10:00,47.3,36.9,30.23,NW,306,10.0,11.0,67,0.00,,,0.00,Wunderground v.1.15,2013-05-25 14:10:00,
2013-05-25 10:16:00,47.9,35.9,30.23,NNW,333,12.0,17.0,63,0.00,,,0.00,Wunderground v.1.15,2013-05-25 14:16:00,
2013-05-25 10:22:00,48.9,36.9,30.22,NW,311,10.0,12.0,63,0.00,,,0.00,Wunderground v.1.15,2013-05-25 14:22:00,
2013-05-25 10:28:00,49.9,37.4,30.23,NW,306,8.0,20.0,62,0.00,,,0.00,Wunderground v.1.15,2013-05-25 14:28:00,
2013-05-25 10:34:00,49.7,36.8,30.22,NW,318,11.0,13.0,61,0.00,,,0.00,Wunderground v.1.15,2013-05-25 14:34:00,
2013-05-25 10:40:00,50.3,36.9,30.22,North,9,9.0,9.0,60,0.00,,,0.00,Wunderground v.1.15,2013-05-25 14:40:00,
2013-05-25 10:46:00,50.9,37.5,30.22,NW,306,8.0,16.0,60,0.00,,,0.00,Wunderground v.1.15,2013-05-25 14:46:00,
2013-05-25 10:52:00,50.4,36.2,30.22,NNW,338,11.0,18.0,58,0.00,,,0.00,Wunderground v.1.15,2013-05-25 14:52:00,
2013-05-25 10:58:00,50.6,35.9,30.22,WNW,288,13.0,23.0,57,0.00,,,0.00,Wunderground v.1.15,2013-05-25 14:58:00,
2013-05-25 11:04:00,50.8,37.8,30.22,NNW,329,14.0,14.0,61,0.00,,,0.00,Wunderground v.1.15,2013-05-25 15:04:00,
2013-05-25 11:10:00,50.9,36.2,30.22,NW,305,13.0,13.0,57,0.00,,,0.00,Wunderground v.1.15,2013-05-25 15:10:00,
2013-05-25 11:16:00,51.2,36.0,30.21,West,281,11.0,13.0,56,0.00,,,0.00,Wunderground v.1.15,2013-05-25 15:16:00,
2013-05-25 11:22:00,51.9,37.6,30.22,WNW,300,10.0,16.0,58,0.00,,,0.00,Wunderground v.1.15,2013-05-25 15:22:00,
2013-05-25 11:28:00,51.8,36.1,30.22,NNW,331,13.0,16.0,55,0.00,,,0.00,Wunderground v.1.15,2013-05-25 15:28:00,
2013-05-25 11:34:00,52.4,40.2,30.22,NNW,331,10.0,13.0,63,0.00,,,0.00,Wunderground v.1.15,2013-05-25 15:34:00,
2013-05-25 11:40:00,52.9,37.6,30.23,WNW,284,11.0,24.0,56,0.00,,,0.00,Wunderground v.1.15,2013-05-25 15:40:00,
2013-05-25 11:46:00,51.8,36.6,30.23,WNW,298,18.0,26.0,56,0.00,,,0.00,Wunderground v.1.15,2013-05-25 15:46:00,
2013-05-25 11:52:00,52.3,39.2,30.23,NNW,333,18.0,23.0,61,0.00,,,0.00,Wunderground v.1.15,2013-05-25 15:52:00,
2013-05-25 11:58:00,53.0,39.9,30.23,West,277,14.0,23.0,61,0.00,,,0.00,Wunderground v.1.15,2013-05-25 15:58:00,
2013-05-25 12:04:00,53.1,37.8,30.22,NW,309,11.0,16.0,56,0.00,,,0.00,Wunderground v.1.15,2013-05-25 16:04:00,
2013-05-25 12:10:00,53.1,35.9,30.23,West,275,13.0,16.0,52,0.00,,,0.00,Wunderground v.1.15,2013-05-25 16:10:00,
2013-05-25 12:16:00,52.9,38.1,30.22,WNW,286,13.0,18.0,57,0.00,,,0.00,Wunderground v.1.15,2013-05-25 16:16:00,
2013-05-25 12:22:00,53.0,36.3,30.22,WNW,283,14.0,16.0,53,0.00,,,0.00,Wunderground v.1.15,2013-05-25 16:22:00,
2013-05-25 12:28:00,52.6,36.9,30.21,West,269,17.0,31.0,55,0.00,,,0.00,Wunderground v.1.15,2013-05-25 16:28:00,
2013-05-25 12:34:00,53.6,38.3,30.22,WNW,294,17.0,18.0,56,0.00,,,0.00,Wunderground v.1.15,2013-05-25 16:34:00,
2013-05-25 12:40:00,53.6,37.3,30.21,WNW,285,15.0,21.0,54,0.00,,,0.00,Wunderground v.1.15,2013-05-25 16:40:00,
2013-05-25 12:46:00,53.8,38.9,30.20,NW,317,15.0,21.0,57,0.00,,,0.00,Wunderground v.1.15,2013-05-25 16:46:00,
2013-05-25 12:52:00,54.8,38.5,30.21,NNW,330,14.0,18.0,54,0.00,,,0.00,Wunderground v.1.15,2013-05-25 16:52:00,
2013-05-25 12:58:00,54.7,38.8,30.20,West,277,15.0,22.0,55,0.00,,,0.00,Wunderground v.1.15,2013-05-25 16:58:00,
2013-05-25 13:04:00,54.4,38.1,30.20,NW,310,16.0,16.0,54,0.00,,,0.00,Wunderground v.1.15,2013-05-25 17:04:00,
2013-05-25 13:10:00,54.8,38.0,30.20,WNW,303,14.0,14.0,53,0.00,,,0.00,Wunderground v.1.15,2013-05-25 17:10:00,
2013-05-25 13:16:00,55.0,38.6,30.19,WNW,301,13.0,17.0,54,0.00,,,0.00,Wunderground v.1.15,2013-05-25 17:16:00,
2013-05-25 13:22:00,55.5,39.6,30.19,WNW,302,12.0,12.0,55,0.00,,,0.00,Wunderground v.1.15,2013-05-25 17:22:00,
2013-05-25 13:28:00,56.0,40.1,30.19,NNW,343,13.0,17.0,55,0.00,,,0.00,Wunderground v.1.15,2013-05-25 17:28:00,
2013-05-25 13:34:00,55.9,39.5,30.19,NNW,330,13.0,15.0,54,0.00,,,0.00,Wunderground v.1.15,2013-05-25 17:34:00,
2013-05-25 13:40:00,56.8,39.4,30.19,NNW,329,13.0,23.0,52,0.00,,,0.00,Wunderground v.1.15,2013-05-25 17:40:00,
2013-05-25 13:46:00,56.2,37.3,30.18,WNW,289,14.0,23.0,49,0.00,,,0.00,Wunderground v.1.15,2013-05-25 17:46:00,
2013-05-25 13:52:00,56.6,38.7,30.17,NW,323,15.0,16.0,51,0.00,,,0.00,Wunderground v.1.15,2013-05-25 17:52:00,
2013-05-25 13:58:00,57.1,36.5,30.18,NW,311,14.0,18.0,46,0.00,,,0.00,Wunderground v.1.15,2013-05-25 17:58:00,
2013-05-25 14:04:00,56.4,37.5,30.18,NW,313,16.0,27.0,49,0.00,,,0.00,Wunderground v.1.15,2013-05-25 18:04:00,
2013-05-25 14:10:00,57.3,37.2,30.18,West,279,16.0,16.0,47,0.00,,,0.00,Wunderground v.1.15,2013-05-25 18:10:00,
2013-05-25 14:16:00,57.6,38.0,30.18,West,275,15.0,19.0,48,0.00,,,0.00,Wunderground v.1.15,2013-05-25 18:16:00,
2013-05-25 14:22:00,57.3,37.2,30.17,NW,319,14.0,16.0,47,0.00,,,0.00,Wunderground v.1.15,2013-05-25 18:22:00,
2013-05-25 14:28:00,58.0,37.9,30.17,NNE,28,13.0,16.0,47,0.00,,,0.00,Wunderground v.1.15,2013-05-25 18:28:00,
2013-05-25 14:34:00,58.4,37.1,30.17,NNW,337,11.0,13.0,45,0.00,,,0.00,Wunderground v.1.15,2013-05-25 18:34:00,
2013-05-25 14:40:00,58.2,36.9,30.17,West,278,14.0,14.0,45,0.00,,,0.00,Wunderground v.1.15,2013-05-25 18:40:00,
2013-05-25 14:46:00,58.2,37.5,30.17,WSW,237,14.0,15.0,46,0.00,,,0.00,Wunderground v.1.15,2013-05-25 18:46:00,
2013-05-25 14:52:00,58.2,36.9,30.17,WNW,300,16.0,22.0,45,0.00,,,0.00,Wunderground v.1.15,2013-05-25 18:52:00,
2013-05-25 14:58:00,59.4,38.6,30.16,NW,309,13.0,22.0,46,0.00,,,0.00,Wunderground v.1.15,2013-05-25 18:58:00,
2013-05-25 15:04:00,59.4,37.5,30.17,WNW,284,11.0,20.0,44,0.00,,,0.00,Wunderground v.1.15,2013-05-25 19:04:00,
2013-05-25 15:10:00,59.6,38.8,30.16,WNW,294,11.0,17.0,46,0.00,,,0.00,Wunderground v.1.15,2013-05-25 19:10:00,
2013-05-25 15:16:00,59.5,38.7,30.16,WNW,291,14.0,22.0,46,0.00,,,0.00,Wunderground v.1.15,2013-05-25 19:16:00,
2013-05-25 15:22:00,59.7,38.3,30.16,NW,310,14.0,21.0,45,0.00,,,0.00,Wunderground v.1.15,2013-05-25 19:22:00,
2013-05-25 15:28:00,59.4,36.3,30.16,NNE,26,15.0,21.0,42,0.00,,,0.00,Wunderground v.1.15,2013-05-25 19:28:00,
2013-05-25 15:34:00,59.9,38.5,30.16,West,262,14.0,18.0,45,0.00,,,0.00,Wunderground v.1.15,2013-05-25 19:34:00,
2013-05-25 15:40:00,60.0,38.0,30.16,NNE,17,13.0,13.0,44,0.00,,,0.00,Wunderground v.1.15,2013-05-25 19:40:00,
2013-05-25 15:46:00,60.3,35.9,30.16,WNW,298,11.0,17.0,40,0.00,,,0.00,Wunderground v.1.15,2013-05-25 19:46:00,
2013-05-25 15:52:00,59.9,37.9,30.16,NNW,338,14.0,23.0,44,0.00,,,0.00,Wunderground v.1.15,2013-05-25 19:52:00,
2013-05-25 15:58:00,60.3,37.1,30.16,North,9,14.0,23.0,42,0.00,,,0.00,Wunderground v.1.15,2013-05-25 19:58:00,
2013-05-25 16:04:00,60.5,37.3,30.16,West,265,14.0,14.0,42,0.00,,,0.00,Wunderground v.1.15,2013-05-25 20:04:00,
2013-05-25 16:10:00,60.3,35.2,30.16,NW,314,15.0,15.0,39,0.00,,,0.00,Wunderground v.1.15,2013-05-25 20:10:00,
2013-05-25 16:16:00,60.5,37.3,30.15,WSW,242,14.0,15.0,42,0.00,,,0.00,Wunderground v.1.15,2013-05-25 20:16:00,
2013-05-25 16:22:00,61.0,37.1,30.15,WNW,298,12.0,12.0,41,0.00,,,0.00,Wunderground v.1.15,2013-05-25 20:22:00,
2013-05-25 16:28:00,60.8,34.3,30.15,West,269,12.0,17.0,37,0.00,,,0.00,Wunderground v.1.15,2013-05-25 20:28:00,
2013-05-25 16:34:00,60.6,36.1,30.15,WNW,299,13.0,21.0,40,0.00,,,0.00,Wunderground v.1.15,2013-05-25 20:34:00,
2013-05-25 16:40:00,60.1,35.7,30.15,WNW,302,14.0,14.0,40,0.00,,,0.00,Wunderground v.1.15,2013-05-25 20:40:00,
2013-05-25 16:46:00,60.5,37.3,30.15,WNW,284,13.0,14.0,42,0.00,,,0.00,Wunderground v.1.15,2013-05-25 20:46:00,
2013-05-25 16:52:00,60.5,34.7,30.15,WNW,286,13.0,19.0,38,0.00,,,0.00,Wunderground v.1.15,2013-05-25 20:52:00,
2013-05-25 16:58:00,60.7,36.8,30.15,NNW,329,14.0,19.0,41,0.00,,,0.00,Wunderground v.1.15,2013-05-25 20:58:00,
2013-05-25 17:04:00,61.2,35.4,30.15,WSW,256,12.0,25.0,38,0.00,,,0.00,Wunderground v.1.15,2013-05-25 21:04:00,
2013-05-25 17:10:00,60.3,35.2,30.15,West,277,15.0,26.0,39,0.00,,,0.00,Wunderground v.1.15,2013-05-25 21:10:00,
2013-05-25 17:16:00,60.2,34.5,30.15,West,279,15.0,26.0,38,0.00,,,0.00,Wunderground v.1.15,2013-05-25 21:16:00,
2013-05-25 17:22:00,60.6,35.5,30.14,North,9,13.0,14.0,39,0.00,,,0.00,Wunderground v.1.15,2013-05-25 21:22:00,
2013-05-25 17:28:00,60.9,35.8,30.14,NNW,332,12.0,16.0,39,0.00,,,0.00,Wunderground v.1.15,2013-05-25 21:28:00,
2013-05-25 17:34:00,60.9,37.0,30.15,NW,318,12.0,14.0,41,0.00,,,0.00,Wunderground v.1.15,2013-05-25 21:34:00,
2013-05-25 17:40:00,60.9,35.8,30.15,WSW,252,10.0,10.0,39,0.00,,,0.00,Wunderground v.1.15,2013-05-25 21:40:00,
2013-05-25 17:46:00,61.0,35.2,30.15,West,279,8.0,11.0,38,0.00,,,0.00,Wunderground v.1.15,2013-05-25 21:46:00,
2013-05-25 17:52:00,60.0,34.3,30.15,WNW,289,13.0,13.0,38,0.00,,,0.00,Wunderground v.1.15,2013-05-25 21:52:00,
2013-05-25 17:58:00,60.2,35.1,30.15,West,279,13.0,14.0,39,0.00,,,0.00,Wunderground v.1.15,2013-05-25 21:58:00,
2013-05-25 18:04:00,60.1,35.0,30.14,NNW,333,11.0,14.0,39,0.00,,,0.00,Wunderground v.1.15,2013-05-25 22:04:00,
2013-05-25 18:10:00,59.8,34.1,30.14,WNW,294,13.0,13.0,38,0.00,,,0.00,Wunderground v.1.15,2013-05-25 22:10:00,
2013-05-25 18:16:00,60.1,35.7,30.14,NNW,331,13.0,14.0,40,0.00,,,0.00,Wunderground v.1.15,2013-05-25 22:16:00,
2013-05-25 18:22:00,60.2,35.1,30.15,West,275,10.0,20.0,39,0.00,,,0.00,Wunderground v.1.15,2013-05-25 22:22:00,
2013-05-25 18:28:00,59.8,34.8,30.15,WNW,296,10.0,20.0,39,0.00,,,0.00,Wunderground v.1.15,2013-05-25 22:28:00,
2013-05-25 18:34:00,59.7,34.7,30.15,West,281,10.0,15.0,39,0.00,,,0.00,Wunderground v.1.15,2013-05-25 22:34:00,
2013-05-25 18:40:00,59.5,35.1,30.15,NW,309,12.0,15.0,40,0.00,,,0.00,Wunderground v.1.15,2013-05-25 22:40:00,
2013-05-25 18:46:00,59.0,33.4,30.15,WNW,298,13.0,16.0,38,0.00,,,0.00,Wunderground v.1.15,2013-05-25 22:46:00,
2013-05-25 18:52:00,58.9,34.0,30.16,NW,323,13.0,14.0,39,0.00,,,0.00,Wunderground v.1.15,2013-05-25 22:52:00,
2013-05-25 18:58:00,58.7,34.4,30.16,WNW,288,10.0,14.0,40,0.00,,,0.00,Wunderground v.1.15,2013-05-25 22:58:00,
2013-05-25 19:04:00,58.7,33.8,30.16,WNW,301,9.0,12.0,39,0.00,,,0.00,Wunderground v.1.15,2013-05-25 23:04:00,
2013-05-25 19:10:00,58.3,34.1,30.16,WNW,285,12.0,12.0,40,0.00,,,0.00,Wunderground v.1.15,2013-05-25 23:10:00,
2013-05-25 19:16:00,58.3,34.1,30.16,NNW,336,13.0,14.0,40,0.00,,,0.00,Wunderground v.1.15,2013-05-25 23:16:00,
2013-05-25 19:22:00,57.8,34.2,30.16,WNW,302,13.0,13.0,41,0.00,,,0.00,Wunderground v.1.15,2013-05-25 23:22:00,
2013-05-25 19:28:00,57.8,33.6,30.16,NW,305,11.0,13.0,40,0.00,,,0.00,Wunderground v.1.15,2013-05-25 23:28:00,
2013-05-25 19:34:00,57.4,32.6,30.16,NNW,348,9.0,18.0,39,0.00,,,0.00,Wunderground v.1.15,2013-05-25 23:34:00,
2013-05-25 19:40:00,57.0,34.1,30.17,WNW,298,10.0,10.0,42,0.00,,,0.00,Wunderground v.1.15,2013-05-25 23:40:00,
2013-05-25 19:46:00,56.9,33.4,30.17,NW,304,10.0,13.0,41,0.00,,,0.00,Wunderground v.1.15,2013-05-25 23:46:00,
2013-05-25 19:52:00,56.4,33.0,30.17,WNW,284,10.0,15.0,41,0.00,,,0.00,Wunderground v.1.15,2013-05-25 23:52:00,
2013-05-25 19:58:00,56.2,32.8,30.16,WNW,285,12.0,15.0,41,0.00,,,0.00,Wunderground v.1.15,2013-05-25 23:58:00,
2013-05-25 20:04:00,55.7,32.9,30.17,WNW,298,11.0,14.0,42,0.00,,,0.00,Wunderground v.1.15,2013-05-26 00:04:00,
2013-05-25 20:10:00,55.3,33.7,30.17,NW,313,9.0,9.0,44,0.00,,,0.00,Wunderground v.1.15,2013-05-26 00:10:00,
2013-05-25 20:16:00,55.0,33.5,30.17,NW,311,5.0,9.0,44,0.00,,,0.00,Wunderground v.1.15,2013-05-26 00:16:00,
2013-05-25 20:22:00,54.5,33.6,30.16,WNW,303,4.0,10.0,45,0.00,,,0.00,Wunderground v.1.15,2013-05-26 00:22:00,
2013-05-25 20:28:00,54.2,33.9,30.17,North,5,7.0,10.0,46,0.00,,,0.00,Wunderground v.1.15,2013-05-26 00:28:00,
2013-05-25 20:34:00,54.0,33.7,30.17,NW,306,8.0,11.0,46,0.00,,,0.00,Wunderground v.1.15,2013-05-26 00:34:00,
2013-05-25 20:40:00,54.0,33.7,30.17,WNW,289,7.0,7.0,46,0.00,,,0.00,Wunderground v.1.15,2013-05-26 00:40:00,
2013-05-25 20:46:00,53.9,33.0,30.17,West,271,8.0,13.0,45,0.00,,,0.00,Wunderground v.1.15,2013-05-26 00:46:00,
2013-05-25 20:52:00,53.7,33.9,30.17,WNW,294,7.0,12.0,47,0.00,,,0.00,Wunderground v.1.15,2013-05-26 00:52:00,
2013-05-25 20:58:00,53.5,33.2,30.17,NNW,333,6.0,12.0,46,0.00,,,0.00,Wunderground v.1.15,2013-05-26 00:58:00,
2013-05-25 21:04:00,53.2,32.9,30.17,WNW,293,5.0,6.0,46,0.00,,,0.00,Wunderground v.1.15,2013-05-26 01:04:00,
2013-05-25 21:10:00,52.8,33.1,30.17,NW,305,4.0,4.0,47,0.00,,,0.00,Wunderground v.1.15,2013-05-26 01:10:00,
2013-05-25 21:16:00,52.7,33.5,30.17,West,276,4.0,4.0,48,0.00,,,0.00,Wunderground v.1.15,2013-05-26 01:16:00,
2013-05-25 21:22:00,52.5,33.4,30.17,WNW,286,5.0,7.0,48,0.00,,,0.00,Wunderground v.1.15,2013-05-26 01:22:00,
2013-05-25 21:28:00,52.1,33.5,30.18,WSW,256,5.0,7.0,49,0.00,,,0.00,Wunderground v.1.15,2013-05-26 01:28:00,
2013-05-25 21:34:00,51.6,33.6,30.18,NNE,15,3.0,4.0,50,0.00,,,0.00,Wunderground v.1.15,2013-05-26 01:34:00,
2013-05-25 21:40:00,51.5,34.0,30.18,West,265,3.0,7.0,51,0.00,,,0.00,Wunderground v.1.15,2013-05-26 01:40:00,
2013-05-25 21:46:00,51.9,33.8,30.18,WNW,286,6.0,8.0,50,0.00,,,0.00,Wunderground v.1.15,2013-05-26 01:46:00,
2013-05-25 21:52:00,51.7,33.6,30.18,West,274,5.0,9.0,50,0.00,,,0.00,Wunderground v.1.15,2013-05-26 01:52:00,
2013-05-25 21:58:00,51.5,33.5,30.18,NNW,334,5.0,9.0,50,0.00,,,0.00,Wunderground v.1.15,2013-05-26 01:58:00,
2013-05-25 22:04:00,51.6,33.6,30.18,NNW,331,4.0,5.0,50,0.00,,,0.00,Wunderground v.1.15,2013-05-26 02:04:00,
2013-05-25 22:10:00,51.6,33.6,30.19,NNE,29,4.0,4.0,50,0.00,,,0.00,Wunderground v.1.15,2013-05-26 02:10:00,
2013-05-25 22:16:00,51.4,33.4,30.19,NNW,327,3.0,6.0,50,0.00,,,0.00,Wunderground v.1.15,2013-05-26 02:16:00,
2013-05-25 22:22:00,51.2,33.7,30.19,NNW,339,3.0,3.0,51,0.00,,,0.00,Wunderground v.1.15,2013-05-26 02:22:00,
2013-05-25 22:28:00,51.0,33.5,30.19,West,269,3.0,13.0,51,0.00,,,0.00,Wunderground v.1.15,2013-05-26 02:28:00,
2013-05-25 22:34:00,50.8,33.8,30.19,NNE,24,2.0,2.0,52,0.00,,,0.00,Wunderground v.1.15,2013-05-26 02:34:00,
2013-05-25 22:40:00,50.4,33.9,30.19,NNW,327,2.0,11.0,53,0.00,,,0.00,Wunderground v.1.15,2013-05-26 02:40:00,
2013-05-25 22:46:00,50.5,34.0,30.19,WNW,288,3.0,11.0,53,0.00,,,0.00,Wunderground v.1.15,2013-05-26 02:46:00,
2013-05-25 22:52:00,50.4,33.9,30.19,NNW,329,2.0,6.0,53,0.00,,,0.00,Wunderground v.1.15,2013-05-26 02:52:00,
2013-05-25 22:58:00,50.4,34.4,30.19,WNW,290,4.0,6.0,54,0.00,,,0.00,Wunderground v.1.15,2013-05-26 02:58:00,
2013-05-25 23:04:00,50.4,33.9,30.19,NNW,336,3.0,4.0,53,0.00,,,0.00,Wunderground v.1.15,2013-05-26 03:04:00,
2013-05-25 23:10:00,49.9,34.4,30.19,West,272,2.0,3.0,55,0.00,,,0.00,Wunderground v.1.15,2013-05-26 03:10:00,
2013-05-25 23:16:00,49.1,34.9,30.19,SSW,203,1.0,3.0,58,0.00,,,0.00,Wunderground v.1.15,2013-05-26 03:16:00,
2013-05-25 23:22:00,48.4,34.7,30.18,SSW,203,1.0,1.0,59,0.00,,,0.00,Wunderground v.1.15,2013-05-26 03:22:00,
2013-05-25 23:28:00,48.2,35.4,30.19,WSW,238,1.0,5.0,61,0.00,,,0.00,Wunderground v.1.15,2013-05-26 03:28:00,
2013-05-25 23:34:00,47.7,34.9,30.19,WSW,244,2.0,2.0,61,0.00,,,0.00,Wunderground v.1.15,2013-05-26 03:34:00,
2013-05-25 23:40:00,47.2,35.2,30.19,WSW,239,2.0,2.0,63,0.00,,,0.00,Wunderground v.1.15,2013-05-26 03:40:00,
2013-05-25 23:46:00,46.8,34.9,30.19,SSE,157,2.0,4.0,63,0.00,,,0.00,Wunderground v.1.15,2013-05-26 03:46:00,
2013-05-25 23:52:00,46.5,35.0,30.19,SW,223,2.0,5.0,64,0.00,,,0.00,Wunderground v.1.15,2013-05-26 03:52:00,
2013-05-25 23:58:00,46.4,35.7,30.19,SW,223,2.0,5.0,66,0.00,,,0.00,Wunderground v.1.15,2013-05-26 03:58:00,